Location: Mesa Verde
(33.6055°N, 114.7275°W)
Time: 21:47:31
(UTC+00:00)

N. Korean satellite - Pass Details

Date: 05 October 2021
Orbit: 450 x 495 km, 97.3° (Epoch: 23 October)

Event Time Altitude Azimuth Distance (km) Brightness Sun altitude
Rises 12:59:10 0° 7° (N) 2,564 10.3 -8.6°
Reaches altitude 10° 13:01:14 10° 5° (N) 1,685 9.4 -8.1°
Maximum altitude 13:04:50 66° 283° (WNW) 543 6.5 -7.4°
Drops below altitude 10° 13:08:26 10° 201° (SSW) 1,685 9.1 -6.6°
Sets 13:10:31 0° 198° (SSW) 2,564 10.1 -6.2°
